N62LC KFSM-KJCT

Flight info

Callsign N62LC
Flight time 1h 32m
Altitude 25000
Route MLC NFW LLO
Aircraft CORS/M-SDGRWZF/S

Departure

Time 2026-05-04 18:47
Airport Fort Smith Regional Airport (KFSM)

Arrival

Time 2026-05-04 20:20
Airport Kimble County Airport (KJCT)
Time Latitude Longitude Altitude Speed Heading
2026-05-04 18:36 35.33684 -94.37112 459 ft 0 kts 77°
2026-05-04 18:41 35.33685 -94.37107 458 ft 3 kts 77°
2026-05-04 18:42 35.33699 -94.37033 457 ft 14 kts 78°
2026-05-04 18:42 35.33669 -94.36998 457 ft 8 kts 236°
2026-05-04 18:42 35.33627 -94.37072 459 ft 9 kts 231°
2026-05-04 18:42 35.33597 -94.37131 460 ft 8 kts 272°
2026-05-04 18:43 35.33587 -94.37220 461 ft 15 kts 241°
2026-05-04 18:43 35.33578 -94.37342 463 ft 15 kts 254°
2026-05-04 18:43 35.33558 -94.37473 465 ft 15 kts 258°
2026-05-04 18:43 35.33536 -94.37599 467 ft 15 kts 255°
2026-05-04 18:44 35.33507 -94.37714 469 ft 12 kts 251°
2026-05-04 18:44 35.33503 -94.37741 469 ft 8 kts 311°
2026-05-04 18:44 35.33502 -94.37919 472 ft 15 kts 263°
2026-05-04 18:44 35.33487 -94.38038 473 ft 13 kts 260°
2026-05-04 18:45 35.33466 -94.38133 474 ft 10 kts 216°
2026-05-04 18:45 35.33438 -94.38145 475 ft 0 kts 152°
2026-05-04 18:45 35.33437 -94.38145 475 ft 2 kts 158°
2026-05-04 18:46 35.33384 -94.38128 476 ft 7 kts 158°
2026-05-04 18:46 35.33369 -94.38074 475 ft 21 kts 90°
2026-05-04 18:46 35.33385 -94.37688 469 ft 65 kts 91°
2026-05-04 18:46 35.33481 -94.36946 475 ft 106 kts 80°
2026-05-04 18:47 35.33629 -94.35979 690 ft 131 kts 87°
2026-05-04 18:47 35.33795 -94.34786 1091 ft 149 kts 87°
2026-05-04 18:47 35.33984 -94.33404 1356 ft 173 kts 88°
2026-05-04 18:47 35.34156 -94.31856 1376 ft 208 kts 89°
2026-05-04 18:48 35.34326 -94.29941 1419 ft 231 kts 91°
2026-05-04 18:48 35.34204 -94.28048 1961 ft 214 kts 118°
2026-05-04 18:48 35.33335 -94.26732 2460 ft 195 kts 154°
2026-05-04 18:48 35.32074 -94.26441 2974 ft 181 kts 194°
2026-05-04 18:49 35.31081 -94.27265 3454 ft 180 kts 233°
2026-05-04 18:49 35.30820 -94.28797 3977 ft 192 kts 268°
2026-05-04 18:49 35.30989 -94.30396 4643 ft 185 kts 272°
2026-05-04 18:49 35.31198 -94.31912 5235 ft 178 kts 274°
2026-05-04 18:50 35.31413 -94.33375 5833 ft 170 kts 274°
2026-05-04 18:50 35.31615 -94.34814 6279 ft 181 kts 274°
2026-05-04 18:50 35.31825 -94.36396 6738 ft 191 kts 275°
2026-05-04 18:50 35.31905 -94.38012 7171 ft 195 kts 264°
2026-05-04 18:51 35.31752 -94.39684 7617 ft 199 kts 258°
2026-05-04 18:51 35.31469 -94.41364 8066 ft 203 kts 255°
2026-05-04 18:51 35.31108 -94.43040 8525 ft 207 kts 253°
2026-05-04 18:51 35.30697 -94.44763 8983 ft 212 kts 253°
2026-05-04 18:52 35.30271 -94.46491 9435 ft 215 kts 253°
2026-05-04 18:52 35.29814 -94.48249 9900 ft 218 kts 252°
2026-05-04 18:52 35.29221 -94.49987 10324 ft 222 kts 247°
2026-05-04 18:52 35.28590 -94.51714 10742 ft 224 kts 248°
2026-05-04 18:53 35.28000 -94.53479 11170 ft 226 kts 250°
2026-05-04 18:53 35.27412 -94.55283 11604 ft 229 kts 250°
2026-05-04 18:53 35.26793 -94.57098 12060 ft 232 kts 249°
2026-05-04 18:53 35.26161 -94.58934 12509 ft 235 kts 250°
2026-05-04 18:54 35.25543 -94.60773 12955 ft 237 kts 250°
2026-05-04 18:54 35.24912 -94.62642 13415 ft 239 kts 250°
2026-05-04 18:54 35.24267 -94.64535 13865 ft 240 kts 250°
2026-05-04 18:54 35.23622 -94.66419 14286 ft 242 kts 250°
2026-05-04 18:55 35.22973 -94.68329 14713 ft 244 kts 251°
2026-05-04 18:55 35.21668 -94.72172 15576 ft 247 kts 251°
2026-05-04 18:55 35.21005 -94.74121 16026 ft 249 kts 251°
2026-05-04 18:56 35.20336 -94.76089 16473 ft 250 kts 251°
2026-05-04 18:56 35.19663 -94.78057 16926 ft 251 kts 251°
2026-05-04 18:56 35.18986 -94.80038 17386 ft 252 kts 251°
2026-05-04 18:56 35.18321 -94.81989 17855 ft 252 kts 251°
2026-05-04 18:57 35.17644 -94.83973 18305 ft 250 kts 252°
2026-05-04 18:57 35.16981 -94.85907 18693 ft 249 kts 252°
2026-05-04 18:57 35.16314 -94.87862 19106 ft 246 kts 252°
2026-05-04 18:57 35.15654 -94.89788 19532 ft 243 kts 252°
2026-05-04 18:58 35.15012 -94.91662 19957 ft 239 kts 252°
2026-05-04 18:58 35.14372 -94.93529 20394 ft 235 kts 253°
2026-05-04 18:58 35.13746 -94.95353 20832 ft 230 kts 253°
2026-05-04 18:58 35.13143 -94.97110 21271 ft 224 kts 253°
2026-05-04 18:59 35.12531 -94.98893 21739 ft 225 kts 254°
2026-05-04 18:59 35.11935 -95.00642 22202 ft 227 kts 254°
2026-05-04 18:59 35.11322 -95.02428 22691 ft 228 kts 254°
2026-05-04 18:59 35.10708 -95.04206 23184 ft 228 kts 254°
2026-05-04 19:00 35.10091 -95.05993 23629 ft 227 kts 255°
2026-05-04 19:00 35.09481 -95.07765 24034 ft 225 kts 255°
2026-05-04 19:00 35.08884 -95.09503 24432 ft 223 kts 255°
2026-05-04 19:00 35.08271 -95.11291 24652 ft 229 kts 255°
2026-05-04 19:01 35.07649 -95.13109 24771 ft 239 kts 255°
2026-05-04 19:01 35.06985 -95.15036 24822 ft 249 kts 255°
2026-05-04 19:01 35.06302 -95.17001 24849 ft 258 kts 255°
2026-05-04 19:01 35.05589 -95.19067 24856 ft 266 kts 254°
2026-05-04 19:02 35.04859 -95.21180 24863 ft 273 kts 254°
2026-05-04 19:02 35.04116 -95.23326 24863 ft 279 kts 254°
2026-05-04 19:02 35.03354 -95.25521 24862 ft 279 kts 254°
2026-05-04 19:02 35.02603 -95.27689 24854 ft 276 kts 254°
2026-05-04 19:03 35.01866 -95.29815 24851 ft 273 kts 254°
2026-05-04 19:03 35.01126 -95.31950 24846 ft 270 kts 254°
2026-05-04 19:03 35.00406 -95.34025 24847 ft 267 kts 254°
2026-05-04 19:03 34.99683 -95.36105 24849 ft 265 kts 254°
2026-05-04 19:04 34.98963 -95.38173 24853 ft 262 kts 254°
2026-05-04 19:04 34.98262 -95.40190 24850 ft 260 kts 254°
2026-05-04 19:04 34.97560 -95.42214 24857 ft 258 kts 254°
2026-05-04 19:04 34.96854 -95.44236 24856 ft 257 kts 254°
2026-05-04 19:05 34.96161 -95.46221 24853 ft 255 kts 254°
2026-05-04 19:05 34.95463 -95.48222 24855 ft 254 kts 254°
2026-05-04 19:05 34.94781 -95.50179 24858 ft 253 kts 254°
2026-05-04 19:05 34.94087 -95.52170 24862 ft 257 kts 254°
2026-05-04 19:06 34.93381 -95.54191 24873 ft 260 kts 254°
2026-05-04 19:06 34.92672 -95.56217 24867 ft 263 kts 254°
2026-05-04 19:06 34.91951 -95.58278 24868 ft 265 kts 254°
2026-05-04 19:06 34.91221 -95.60362 24874 ft 267 kts 254°
2026-05-04 19:07 34.90492 -95.62443 24869 ft 269 kts 254°
2026-05-04 19:07 34.89755 -95.64550 24874 ft 271 kts 254°
2026-05-04 19:07 34.89016 -95.66652 24866 ft 272 kts 254°
2026-05-04 19:07 34.88270 -95.68778 24863 ft 273 kts 254°
2026-05-04 19:08 34.87523 -95.70903 24870 ft 274 kts 253°
2026-05-04 19:08 34.86764 -95.73064 24867 ft 275 kts 253°
2026-05-04 19:08 34.85961 -95.75170 24853 ft 282 kts 246°
2026-05-04 19:08 34.84694 -95.77074 24871 ft 291 kts 236°
2026-05-04 19:09 34.83238 -95.78787 24870 ft 295 kts 231°
2026-05-04 19:09 34.81682 -95.80416 24870 ft 298 kts 230°
2026-05-04 19:09 34.80067 -95.82034 24869 ft 299 kts 229°
2026-05-04 19:09 34.78437 -95.83624 24863 ft 301 kts 227°
2026-05-04 19:10 34.76666 -95.85057 24865 ft 307 kts 221°
2026-05-04 19:10 34.74896 -95.86417 24858 ft 300 kts 224°
2026-05-04 19:10 34.73196 -95.87875 24859 ft 295 kts 225°
2026-05-04 19:10 34.71516 -95.89260 24859 ft 294 kts 224°
2026-05-04 19:11 34.69791 -95.90632 24858 ft 291 kts 224°
2026-05-04 19:11 34.68143 -95.91992 24851 ft 288 kts 225°
2026-05-04 19:11 34.66479 -95.93368 24854 ft 286 kts 225°
2026-05-04 19:11 34.64830 -95.94704 24859 ft 284 kts 225°
2026-05-04 19:12 34.63182 -95.96046 24853 ft 282 kts 225°
2026-05-04 19:12 34.59951 -95.98690 24855 ft 279 kts 225°
2026-05-04 19:12 34.58358 -95.99987 24856 ft 278 kts 225°
2026-05-04 19:13 34.56746 -96.01300 24856 ft 276 kts 225°
2026-05-04 19:13 34.55167 -96.02589 24856 ft 275 kts 225°
2026-05-04 19:13 34.53586 -96.03876 24855 ft 274 kts 226°
2026-05-04 19:13 34.52000 -96.05164 24856 ft 273 kts 226°
2026-05-04 19:14 34.50435 -96.06439 24860 ft 272 kts 226°
2026-05-04 19:14 34.48866 -96.07717 24855 ft 271 kts 226°
2026-05-04 19:14 34.47298 -96.08990 24859 ft 270 kts 226°
2026-05-04 19:14 34.45752 -96.10245 24862 ft 268 kts 226°
2026-05-04 19:15 34.44199 -96.11507 24862 ft 267 kts 226°
2026-05-04 19:15 34.42653 -96.12763 24863 ft 266 kts 226°
2026-05-04 19:15 34.41123 -96.14004 24866 ft 266 kts 226°
2026-05-04 19:15 34.39587 -96.15250 24865 ft 265 kts 226°
2026-05-04 19:16 34.38037 -96.16506 24864 ft 265 kts 226°
2026-05-04 19:16 34.36523 -96.17731 24866 ft 264 kts 226°
2026-05-04 19:16 34.34993 -96.18970 24869 ft 263 kts 226°
2026-05-04 19:16 34.33481 -96.20195 24865 ft 262 kts 226°
2026-05-04 19:17 34.31960 -96.21426 24866 ft 262 kts 227°
2026-05-04 19:17 34.30459 -96.22638 24866 ft 261 kts 227°
2026-05-04 19:17 34.28938 -96.23869 24867 ft 260 kts 227°
2026-05-04 19:17 34.27426 -96.25091 24865 ft 260 kts 227°
2026-05-04 19:18 34.25942 -96.26289 24868 ft 259 kts 227°
2026-05-04 19:18 34.24443 -96.27499 24874 ft 258 kts 227°
2026-05-04 19:18 34.22935 -96.28716 24874 ft 258 kts 227°
2026-05-04 19:18 34.21469 -96.29898 24873 ft 257 kts 227°
2026-05-04 19:19 34.19972 -96.31107 24875 ft 257 kts 227°
2026-05-04 19:19 34.18478 -96.32310 24884 ft 257 kts 227°
2026-05-04 19:19 34.17001 -96.33499 24892 ft 256 kts 227°
2026-05-04 19:19 34.15513 -96.34698 24892 ft 256 kts 227°
2026-05-04 19:20 34.14044 -96.35881 24893 ft 256 kts 227°
2026-05-04 19:20 34.12540 -96.37095 24907 ft 263 kts 227°
2026-05-04 19:20 34.11004 -96.38332 24901 ft 268 kts 226°
2026-05-04 19:20 34.09425 -96.39595 24911 ft 272 kts 226°
2026-05-04 19:21 34.07851 -96.40861 24917 ft 276 kts 226°
2026-05-04 19:21 34.06238 -96.42158 24912 ft 279 kts 226°
2026-05-04 19:21 34.04621 -96.43454 24909 ft 283 kts 226°
2026-05-04 19:21 34.02968 -96.44779 24919 ft 285 kts 226°
2026-05-04 19:22 34.01321 -96.46100 24912 ft 288 kts 226°
2026-05-04 19:22 33.99637 -96.47450 24913 ft 290 kts 226°
2026-05-04 19:22 33.97955 -96.48797 24909 ft 293 kts 225°
2026-05-04 19:22 33.96252 -96.50161 24916 ft 295 kts 225°
2026-05-04 19:23 33.94530 -96.51540 24914 ft 297 kts 225°
2026-05-04 19:23 33.92819 -96.52908 24911 ft 298 kts 225°
2026-05-04 19:23 33.91080 -96.54298 24906 ft 300 kts 225°
2026-05-04 19:23 33.89329 -96.55697 24903 ft 301 kts 225°
2026-05-04 19:24 33.87591 -96.57086 24900 ft 302 kts 225°
2026-05-04 19:24 33.85836 -96.58487 24892 ft 303 kts 225°
2026-05-04 19:24 33.84081 -96.59887 24897 ft 304 kts 225°
2026-05-04 19:24 33.82308 -96.61300 24897 ft 305 kts 225°
2026-05-04 19:25 33.80554 -96.62699 24901 ft 305 kts 225°
2026-05-04 19:25 33.78769 -96.64121 24900 ft 306 kts 225°
2026-05-04 19:25 33.77004 -96.65526 24900 ft 307 kts 225°
2026-05-04 19:25 33.75212 -96.66952 24902 ft 307 kts 225°
2026-05-04 19:26 33.73421 -96.68378 24903 ft 308 kts 225°
2026-05-04 19:26 33.71648 -96.69788 24902 ft 308 kts 225°
2026-05-04 19:26 33.69854 -96.71213 24904 ft 309 kts 225°
2026-05-04 19:26 33.68071 -96.72630 24903 ft 309 kts 225°
2026-05-04 19:27 33.66269 -96.74060 24900 ft 309 kts 225°
2026-05-04 19:27 33.64472 -96.75486 24903 ft 309 kts 225°
2026-05-04 19:27 33.62668 -96.76917 24900 ft 310 kts 225°
2026-05-04 19:27 33.60874 -96.78338 24897 ft 310 kts 225°
2026-05-04 19:28 33.59073 -96.79766 24896 ft 310 kts 225°
2026-05-04 19:28 33.57291 -96.81177 24893 ft 310 kts 225°
2026-05-04 19:28 33.55483 -96.82609 24891 ft 310 kts 225°
2026-05-04 19:28 33.54292 -96.83551 24893 ft 310 kts 225°
2026-05-04 19:29 33.51887 -96.85452 24890 ft 310 kts 225°
2026-05-04 19:29 33.50089 -96.86872 24886 ft 310 kts 225°
2026-05-04 19:29 33.48884 -96.87825 24887 ft 310 kts 225°
2026-05-04 19:29 33.47093 -96.89241 24883 ft 311 kts 225°
2026-05-04 19:30 33.45279 -96.90671 24883 ft 311 kts 224°
2026-05-04 19:30 33.43474 -96.92093 24884 ft 311 kts 225°
2026-05-04 19:30 33.41680 -96.93510 24886 ft 311 kts 225°
2026-05-04 19:30 33.39864 -96.94942 24888 ft 311 kts 224°
2026-05-04 19:31 33.38073 -96.96351 24887 ft 311 kts 224°
2026-05-04 19:31 33.36257 -96.97780 24894 ft 311 kts 225°
2026-05-04 19:31 33.34438 -96.99212 24893 ft 311 kts 225°
2026-05-04 19:31 33.32644 -97.00623 24894 ft 311 kts 224°
2026-05-04 19:32 33.30835 -97.02046 24899 ft 311 kts 224°
2026-05-04 19:32 33.29035 -97.03459 24899 ft 311 kts 224°
2026-05-04 19:32 33.27217 -97.04886 24899 ft 311 kts 224°
2026-05-04 19:32 33.25406 -97.06309 24901 ft 311 kts 224°
2026-05-04 19:33 33.23612 -97.07715 24904 ft 309 kts 224°
2026-05-04 19:33 33.21812 -97.09126 24901 ft 307 kts 224°
2026-05-04 19:33 33.20026 -97.10526 24903 ft 306 kts 225°
2026-05-04 19:33 33.18260 -97.11910 24902 ft 305 kts 225°
2026-05-04 19:34 33.16500 -97.13288 24901 ft 304 kts 225°
2026-05-04 19:34 33.14731 -97.14672 24903 ft 303 kts 225°
2026-05-04 19:34 33.12977 -97.16044 24903 ft 302 kts 225°
2026-05-04 19:34 33.11209 -97.17426 24901 ft 301 kts 225°
2026-05-04 19:35 33.09471 -97.18785 24903 ft 300 kts 225°
2026-05-04 19:35 33.07714 -97.20157 24900 ft 300 kts 225°
2026-05-04 19:35 33.05967 -97.21520 24894 ft 299 kts 225°
2026-05-04 19:35 33.04250 -97.22859 24897 ft 298 kts 225°
2026-05-04 19:36 33.02505 -97.24222 24893 ft 298 kts 225°
2026-05-04 19:36 33.00767 -97.25576 24896 ft 297 kts 225°
2026-05-04 19:36 32.99050 -97.26913 24897 ft 297 kts 225°
2026-05-04 19:36 32.97307 -97.28272 24895 ft 297 kts 225°
2026-05-04 19:37 32.95593 -97.29606 24895 ft 298 kts 225°
2026-05-04 19:37 32.93851 -97.30961 24893 ft 298 kts 225°
2026-05-04 19:37 32.92105 -97.32319 24891 ft 298 kts 224°
2026-05-04 19:37 32.90386 -97.33655 24896 ft 298 kts 225°
2026-05-04 19:38 32.88649 -97.35004 24894 ft 298 kts 225°
2026-05-04 19:38 32.86924 -97.36344 24896 ft 298 kts 225°
2026-05-04 19:38 32.85183 -97.37695 24896 ft 298 kts 225°
2026-05-04 19:38 32.83433 -97.39053 24897 ft 298 kts 225°
2026-05-04 19:39 32.81701 -97.40396 24893 ft 297 kts 225°
2026-05-04 19:39 32.79977 -97.41745 24901 ft 296 kts 225°
2026-05-04 19:39 32.78288 -97.43123 24902 ft 296 kts 226°
2026-05-04 19:39 32.76516 -97.44420 24907 ft 302 kts 220°
2026-05-04 19:40 32.74666 -97.45619 24903 ft 300 kts 221°
2026-05-04 19:40 32.72900 -97.46887 24904 ft 298 kts 224°
2026-05-04 19:40 32.71120 -97.48163 24903 ft 299 kts 222°
2026-05-04 19:40 32.69322 -97.49388 24905 ft 300 kts 222°
2026-05-04 19:41 32.67517 -97.50644 24902 ft 299 kts 223°
2026-05-04 19:41 32.65721 -97.51918 24898 ft 299 kts 223°
2026-05-04 19:41 32.63931 -97.53162 24895 ft 299 kts 222°
2026-05-04 19:41 32.62135 -97.54405 24892 ft 298 kts 223°
2026-05-04 19:42 32.60355 -97.55651 24890 ft 298 kts 223°
2026-05-04 19:42 32.58578 -97.56892 24886 ft 298 kts 223°
2026-05-04 19:42 32.56785 -97.58138 24894 ft 298 kts 223°
2026-05-04 19:42 32.54976 -97.59398 24872 ft 298 kts 223°
2026-05-04 19:43 32.53196 -97.60637 24870 ft 299 kts 223°
2026-05-04 19:43 32.51425 -97.61869 24870 ft 299 kts 223°
2026-05-04 19:43 32.49623 -97.63121 24869 ft 299 kts 223°
2026-05-04 19:43 32.47837 -97.64362 24872 ft 299 kts 223°
2026-05-04 19:44 32.46039 -97.65610 24876 ft 299 kts 223°
2026-05-04 19:44 32.44229 -97.66867 24878 ft 299 kts 223°
2026-05-04 19:44 32.42449 -97.68102 24874 ft 299 kts 223°
2026-05-04 19:44 32.40647 -97.69351 24873 ft 299 kts 223°
2026-05-04 19:45 32.38850 -97.70597 24874 ft 299 kts 223°
2026-05-04 19:45 32.37046 -97.71847 24877 ft 299 kts 223°
2026-05-04 19:45 32.35268 -97.73078 24873 ft 299 kts 223°
2026-05-04 19:45 32.33461 -97.74330 24873 ft 299 kts 223°
2026-05-04 19:46 32.31676 -97.75564 24871 ft 298 kts 223°
2026-05-04 19:46 32.29873 -97.76811 24876 ft 298 kts 223°
2026-05-04 19:46 32.28102 -97.78035 24876 ft 298 kts 223°
2026-05-04 19:46 32.26325 -97.79263 24874 ft 298 kts 223°
2026-05-04 19:47 32.24528 -97.80505 24876 ft 298 kts 223°
2026-05-04 19:47 32.22732 -97.81743 24872 ft 297 kts 223°
2026-05-04 19:47 32.20963 -97.82965 24875 ft 296 kts 223°
2026-05-04 19:47 32.19171 -97.84201 24877 ft 296 kts 223°
2026-05-04 19:48 32.17404 -97.85419 24875 ft 296 kts 223°
2026-05-04 19:48 32.15630 -97.86640 24897 ft 296 kts 223°
2026-05-04 19:48 32.13847 -97.87869 24896 ft 296 kts 223°
2026-05-04 19:48 32.12066 -97.89095 24897 ft 296 kts 223°
2026-05-04 19:49 32.10288 -97.90319 24901 ft 295 kts 223°
2026-05-04 19:49 32.08509 -97.91542 24898 ft 295 kts 223°
2026-05-04 19:49 32.06751 -97.92750 24898 ft 295 kts 223°
2026-05-04 19:49 32.04973 -97.93973 24902 ft 295 kts 223°
2026-05-04 19:50 32.03185 -97.95201 24896 ft 295 kts 223°
2026-05-04 19:50 32.01434 -97.96401 24898 ft 294 kts 223°
2026-05-04 19:50 31.99652 -97.97625 24896 ft 294 kts 223°
2026-05-04 19:50 31.97900 -97.98828 24896 ft 294 kts 223°
2026-05-04 19:51 31.96121 -98.00047 24896 ft 294 kts 223°
2026-05-04 19:51 31.94347 -98.01262 24889 ft 294 kts 223°
2026-05-04 19:51 31.92586 -98.02469 24898 ft 294 kts 223°
2026-05-04 19:51 31.90836 -98.03668 24901 ft 294 kts 223°
2026-05-04 19:52 31.89060 -98.04882 24905 ft 294 kts 223°
2026-05-04 19:52 31.87285 -98.06096 24911 ft 294 kts 223°
2026-05-04 19:52 31.85526 -98.07300 24913 ft 294 kts 223°
2026-05-04 19:52 31.83771 -98.08499 24916 ft 293 kts 223°
2026-05-04 19:53 31.81997 -98.09711 24920 ft 293 kts 224°
2026-05-04 19:53 31.80244 -98.10908 24923 ft 293 kts 223°
2026-05-04 19:53 31.78488 -98.12107 24927 ft 293 kts 224°
2026-05-04 19:53 31.76711 -98.13319 24925 ft 293 kts 223°
2026-05-04 19:54 31.74946 -98.14522 24931 ft 293 kts 223°
2026-05-04 19:54 31.73185 -98.15722 24929 ft 293 kts 223°
2026-05-04 19:54 31.71429 -98.16915 24926 ft 293 kts 223°
2026-05-04 19:54 31.69663 -98.18122 24930 ft 293 kts 224°
2026-05-04 19:55 31.67886 -98.19335 24934 ft 293 kts 223°
2026-05-04 19:55 31.66136 -98.20521 24929 ft 293 kts 223°
2026-05-04 19:55 31.64376 -98.21717 24926 ft 293 kts 223°
2026-05-04 19:55 31.62609 -98.22921 24933 ft 293 kts 224°
2026-05-04 19:56 31.60856 -98.24113 24926 ft 293 kts 223°
2026-05-04 19:56 31.59085 -98.25314 24929 ft 293 kts 223°
2026-05-04 19:56 31.57314 -98.26516 24931 ft 293 kts 223°
2026-05-04 19:56 31.55567 -98.27703 24926 ft 293 kts 223°
2026-05-04 19:57 31.53790 -98.28907 24925 ft 293 kts 223°
2026-05-04 19:57 31.52044 -98.30090 24917 ft 293 kts 223°
2026-05-04 19:57 31.50262 -98.31299 24918 ft 293 kts 223°
2026-05-04 19:57 31.48515 -98.32484 24915 ft 293 kts 223°
2026-05-04 19:58 31.46740 -98.33685 24914 ft 293 kts 223°
2026-05-04 19:58 31.44988 -98.34870 24914 ft 293 kts 223°
2026-05-04 19:58 31.43208 -98.36075 24908 ft 293 kts 223°
2026-05-04 19:58 31.41463 -98.37256 24908 ft 293 kts 223°
2026-05-04 19:59 31.39683 -98.38458 24907 ft 293 kts 223°
2026-05-04 19:59 31.37933 -98.39640 24905 ft 293 kts 223°
2026-05-04 19:59 31.36174 -98.40828 24908 ft 293 kts 223°
2026-05-04 19:59 31.34396 -98.42030 24910 ft 293 kts 223°
2026-05-04 20:00 31.32639 -98.43214 24910 ft 293 kts 223°
2026-05-04 20:00 31.30868 -98.44408 24911 ft 294 kts 223°
2026-05-04 20:00 31.29094 -98.45604 24911 ft 294 kts 223°
2026-05-04 20:00 31.27317 -98.46802 24912 ft 294 kts 223°
2026-05-04 20:01 31.25555 -98.47989 24912 ft 294 kts 223°
2026-05-04 20:01 31.23778 -98.49185 24913 ft 294 kts 223°
2026-05-04 20:01 31.21992 -98.50387 24911 ft 294 kts 223°
2026-05-04 20:01 31.20230 -98.51572 24912 ft 294 kts 223°
2026-05-04 20:02 31.18446 -98.52772 24913 ft 294 kts 223°
2026-05-04 20:02 31.16661 -98.53970 24910 ft 294 kts 223°
2026-05-04 20:02 31.14896 -98.55157 24911 ft 294 kts 223°
2026-05-04 20:02 31.13134 -98.56340 24905 ft 294 kts 223°
2026-05-04 20:03 31.11339 -98.57544 24900 ft 294 kts 223°
2026-05-04 20:03 31.09576 -98.58727 24904 ft 294 kts 223°
2026-05-04 20:03 31.07789 -98.59927 24910 ft 294 kts 223°
2026-05-04 20:03 31.06038 -98.61101 24918 ft 294 kts 223°
2026-05-04 20:04 31.04258 -98.62292 24920 ft 294 kts 223°
2026-05-04 20:04 31.02472 -98.63489 24931 ft 294 kts 223°
2026-05-04 20:04 31.00701 -98.64676 24928 ft 294 kts 222°
2026-05-04 20:04 30.98926 -98.65861 24932 ft 294 kts 222°
2026-05-04 20:05 30.97147 -98.67051 24937 ft 293 kts 222°
2026-05-04 20:05 30.95401 -98.68220 24940 ft 293 kts 222°
2026-05-04 20:05 30.93613 -98.69414 24946 ft 293 kts 222°
2026-05-04 20:05 30.91865 -98.70581 24938 ft 293 kts 222°
2026-05-04 20:06 30.90073 -98.71777 24941 ft 292 kts 222°
2026-05-04 20:06 30.88536 -98.73173 24849 ft 273 kts 241°
2026-05-04 20:06 30.87753 -98.75090 24453 ft 263 kts 262°
2026-05-04 20:06 30.87409 -98.77174 23984 ft 258 kts 265°
2026-05-04 20:07 30.87116 -98.79205 23497 ft 255 kts 265°
2026-05-04 20:07 30.86788 -98.81222 22919 ft 251 kts 264°
2026-05-04 20:07 30.86419 -98.83196 22342 ft 246 kts 263°
2026-05-04 20:07 30.86040 -98.85108 21777 ft 242 kts 262°
2026-05-04 20:08 30.85652 -98.87002 21219 ft 238 kts 262°
2026-05-04 20:08 30.85177 -98.88834 20673 ft 239 kts 256°
2026-05-04 20:08 30.84568 -98.90645 20140 ft 241 kts 255°
2026-05-04 20:08 30.83995 -98.92499 19615 ft 242 kts 258°
2026-05-04 20:09 30.83473 -98.94345 19111 ft 245 kts 258°
2026-05-04 20:09 30.82902 -98.96235 18603 ft 249 kts 256°
2026-05-04 20:09 30.82308 -98.98150 18092 ft 252 kts 256°
2026-05-04 20:09 30.81728 -99.00085 17514 ft 255 kts 256°
2026-05-04 20:10 30.81145 -99.02037 16960 ft 259 kts 256°
2026-05-04 20:10 30.80542 -99.04020 16414 ft 262 kts 255°
2026-05-04 20:10 30.80133 -99.05360 16050 ft 267 kts 255°
2026-05-04 20:10 30.79506 -99.07438 15517 ft 276 kts 254°
2026-05-04 20:11 30.78864 -99.09559 15000 ft 283 kts 254°
2026-05-04 20:11 30.78197 -99.11755 14482 ft 290 kts 253°
2026-05-04 20:11 30.77513 -99.14006 13990 ft 296 kts 253°
2026-05-04 20:11 30.76832 -99.16247 13658 ft 296 kts 253°
2026-05-04 20:12 30.76144 -99.18514 13285 ft 297 kts 253°
2026-05-04 20:12 30.75458 -99.20771 12898 ft 299 kts 253°
2026-05-04 20:12 30.74759 -99.23067 12499 ft 302 kts 252°
2026-05-04 20:12 30.74059 -99.25369 12078 ft 305 kts 252°
2026-05-04 20:13 30.73342 -99.27719 11658 ft 309 kts 252°
2026-05-04 20:13 30.72620 -99.30090 11245 ft 312 kts 252°
2026-05-04 20:13 30.71898 -99.32460 10841 ft 315 kts 252°
2026-05-04 20:13 30.71157 -99.34883 10434 ft 317 kts 251°
2026-05-04 20:14 30.70435 -99.37251 10038 ft 313 kts 251°
2026-05-04 20:14 30.69709 -99.39627 9631 ft 310 kts 251°
2026-05-04 20:14 30.68987 -99.41980 9200 ft 309 kts 251°
2026-05-04 20:14 30.68264 -99.44343 8783 ft 309 kts 251°
2026-05-04 20:15 30.67538 -99.46711 8363 ft 309 kts 251°
2026-05-04 20:15 30.66821 -99.49048 7954 ft 310 kts 251°
2026-05-04 20:15 30.66106 -99.51380 7545 ft 299 kts 252°
2026-05-04 20:15 30.65424 -99.53599 7154 ft 289 kts 252°
2026-05-04 20:16 30.64752 -99.55785 6752 ft 282 kts 252°
2026-05-04 20:16 30.64105 -99.57904 6350 ft 277 kts 252°
2026-05-04 20:16 30.63458 -99.59992 5951 ft 273 kts 251°
2026-05-04 20:16 30.62826 -99.62059 5535 ft 270 kts 250°
2026-05-04 20:17 30.62200 -99.64102 5139 ft 267 kts 249°
2026-05-04 20:17 30.61569 -99.66143 4776 ft 265 kts 248°
2026-05-04 20:17 30.60953 -99.68130 4362 ft 265 kts 248°
2026-05-04 20:17 30.60329 -99.70159 4004 ft 268 kts 248°
2026-05-04 20:18 30.59693 -99.72205 3546 ft 268 kts 246°
2026-05-04 20:18 30.58995 -99.74183 3253 ft 265 kts 237°
2026-05-04 20:18 30.57732 -99.75612 3050 ft 246 kts 207°
2026-05-04 20:18 30.56179 -99.76229 2799 ft 234 kts 194°
2026-05-04 20:19 30.54587 -99.76510 2365 ft 225 kts 184°
2026-05-04 20:19 30.53082 -99.76453 2036 ft 205 kts 177°
2026-05-04 20:19 30.51846 -99.76410 1892 ft 155 kts 186°
2026-05-04 20:19 30.51024 -99.76445 1737 ft 70 kts 184°
2026-05-04 20:20 30.50687 -99.76472 1721 ft 30 kts 187°
2026-05-04 20:20 30.50650 -99.76561 1720 ft 6 kts 32°
2026-05-04 20:20 30.50656 -99.76556 1720 ft 0 kts 32°